Dewpoint
-6 -4 -4 -4 -4 -5 -7 -8 -5 -10 -9 -9 -8 -11 -11 -10 -10 -10 -11 -11 -12 -13 -14 -13 -14 -19 -21 -22 -24 -24 -24 -24 -25 -27 -31 -35 -33 -29 -26 -25 -21 -15 -11 -10
-6 -8 -9 -6 -6 -6 -6 -7 -9 -9 -9 -7 -7 -9 -8 -9 -7 -6 -10 -10 -9 -9 -10 -13 -12 -14 -19 -21 -24 -25 -25 -24 -25 -27 -29 -34 -32 -28 -26 -24 -21 -19 -16 -12
-7 -9 -12 -6 -7 -6 -6 -6 -8 -8 -8 -8 -9 -7 -6 -6 -5 -6 -11 -9 -9 -9 -8 -8 -15 -15 -18 -20 -23 -25 -25 -25 -25 -26 -27 -32 -31 -27 -22 -21 -21 -19 -18 -18
-8 -11 -9 -7 -10 -10 -10 -7 -8 -8 -8 -9 -10 -10 -8 -5 -6 -7 -8 -9 -10 -9 -7 -10 -16 -17 -18 -19 -22 -24 -25 -25 -25 -25 -27 -31 -29 -25 -19 -21 -20 -19 -20 -20
-10 -10 -8 -11 -9 -9 -9 -10 -8 -9 -10 -10 -10 -9 -10 -7 -6 -8 -10 -8 -9 -10 -8 -8 -17 -18 -18 -19 -21 -23 -25 -25 -25 -25 -26 -30 -29 -23 -17 -19 -19 -20 -22 -21
-12 -11 -8 -9 -10 -12 -13 -9 -10 -10 -10 -9 -9 -9 -12 -11 -8 -9 -10 -9 -7 -9 -9 -7 -10 -18 -18 -18 -20 -22 -23 -24 -25 -25 -26 -27 -26 -19 -17 -18 -18 -19 -24 -20
-11 -14 -10 -12 -11 -15 -13 -14 -9 -9 -9 -9 -9 -9 -9 -9 -9 -8 -9 -11 -7 -8 -9 -8 -7 -14 -12 -16 -19 -21 -22 -23 -25 -25 -26 -25 -24 -17 -17 -18 -17 -17 -20 -20
-13 -15 -13 -14 -13 -10 -12 -10 -9 -9 -9 -9 -9 -9 -9 -9 -9 -9 -10 -11 -12 -9 -9 -8 -7 -10 -9 -14 -19 -21 -22 -22 -24 -25 -25 -24 -22 -22 -18 -16 -16 -15 -14 -18
-12 -11 -14 -13 -13 -12 -10 -9 -9 -9 -9 -9 -9 -9 -9 -9 -9 -9 -9 -11 -11 -9 -8 -8 -8 -10 -9 -13 -20 -21 -21 -21 -23 -25 -25 -23 -21 -21 -20 -14 -13 -14 -13 -14
-12 -14 -14 -12 -12 -13 -11 -9 -9 -9 -10 -10 -9 -10 -10 -10 -9 -8 -8 -8 -7 -7 -8 -8 -8 -9 -10 -16 -20 -20 -21 -19 -22 -24 -25 -24 -21 -20 -18 -15 -13 -14 -13 -13
-13 -13 -12 -11 -12 -9 -11 -10 -9 -9 -10 -10 -11 -10 -10 -10 -9 -9 -8 -8 -8 -8 -8 -8 -9 -9 -13 -14 -18 -20 -19 -15 -22 -24 -25 -24 -21 -20 -20 -16 -13 -13 -13 -13
-9 -10 -9 -10 -10 -12 -11 -11 -9 -9 -10 -11 -12 -11 -11 -11 -10 -9 -9 -8 -8 -8 -8 -9 -9 -9 -13 -13 -11 -19 -13 -13 -22 -24 -25 -24 -21 -21 -22 -22 -15 -13 -13 -13
-8 -10 -11 -12 -13 -13 -12 -12 -11 -10 -11 -13 -13 -12 -11 -11 -11 -9 -9 -9 -9 -9 -9 -9 -10 -10 -11 -13 -12 -15 -11 -14 -22 -24 -24 -24 -21 -20 -22 -23 -21 -21 -14 -14
-9 -11 -13 -14 -13 -15 -14 -14 -14 -15 -15 -13 -13 -12 -12 -12 -11 -10 -10 -10 -10 -10 -10 -10 -11 -11 -12 -12 -13 -12 -12 -14 -21 -23 -25 -23 -20 -19 -20 -22 -23 -22 -22 -20
-12 -14 -15 -15 -15 -15 -15 -15 -15 -15 -15 -14 -13 -13 -13 -12 -11 -11 -11 -11 -11 -11 -11 -12 -12 -12 -12 -12 -12 -12 -12 -14 -21 -24 -25 -22 -20 -19 -19 -19 -21 -22 -22 -24
-14 -18 -16 -15 -15 -15 -15 -15 -15 -15 -15 -15 -14 -14 -13 -13 -12 -12 -12 -12 -12 -12 -12 -13 -12 -13 -13 -13 -13 -13 -13 -15 -22 -25 -24 -19 -19 -19 -19 -19 -18 -19 -21 -19
-18 -17 -16 -16 -15 -15 -15 -16 -15 -15 -15 -15 -15 -14 -14 -13 -13 -13 -13 -13 -13 -13 -13 -13 -13 -13 -13 -13 -13 -13 -14 -16 -21 -23 -20 -18 -17 -18 -18 -19 -19 -18 -18 -17
-19 -18 -16 -16 -16 -16 -16 -16 -16 -16 -16 -15 -15 -15 -14 -14 -14 -14 -13 -14 -13 -13 -13 -13 -14 -14 -14 -14 -14 -14 -15 -19 -16 -19 -18 -16 -17 -17 -18 -18 -19 -19 -20 -21
-21 -20 -18 -17 -17 -17 -17 -17 -17 -16 -16 -16 -15 -15 -15 -15 -15 -15 -15 -15 -14 -14 -14 -14 -14 -14 -14 -14 -16 -18 -20 -20 -17 -18 -16 -16 -16 -17 -17 -18 -19 -20 -22 -24
-23 -20 -18 -18 -18 -17 -17 -17 -17 -17 -16 -16 -16 -16 -16 -16 -15 -15 -15 -15 -15 -15 -16 -17 -17 -19 -20 -20 -21 -22 -21 -20 -18 -17 -16 -16 -16 -17 -16 -17 -19 -21 -25 -22
-22 -20 -18 -18 -18 -18 -17 -17 -17 -17 -17 -16 -16 -16 -16 -16 -16 -16 -16 -16 -16 -15 -17 -18 -19 -18 -18 -19 -20 -20 -20 -20 -18 -16 -16 -17 -16 -17 -17 -18 -20 -24 -22 -22
-21 -19 -18 -19 -18 -18 -18 -17 -17 -18 -17 -17 -17 -16 -16 -16 -16 -16 -16 -15 -15 -15 -16 -16 -17 -16 -16 -19 -19 -18 -18 -18 -17 -16 -17 -17 -17 -17 -18 -21 -24 -21 -19 -22
-21 -19 -18 -19 -19 -19 -18 -18 -18 -18 -18 -17 -17 -17 -16 -16 -16 -16 -16 -16 -15 -16 -16 -15 -15 -15 -17 -21 -20 -18 -17 -17 -17 -17 -17 -17 -18 -20 -22 -24 -19 -18 -20 -22
-21 -19 -19 -19 -19 -20 -19 -19 -19 -18 -18 -18 -17 -17 -17 -17 -16 -16 -15 -15 -15 -15 -15 -15 -15 -16 -16 -19 -21 -20 -19 -19 -19 -19 -20 -20 -21 -24 -22 -17 -17 -17 -18 -19
-21 -20 -20 -20 -20 -20 -20 -19 -19 -19 -19 -19 -19 -18 -18 -18 -17 -17 -16 -16 -15 -15 -16 -16 -18 -18 -17 -20 -20 -20 -20 -20 -21 -22 -24 -22 -19 -17 -17 -17 -17 -18 -19 -20
-21 -20 -20 -20 -20 -20 -20 -20 -20 -19 -19 -19 -20 -20 -19 -18 -18 -18 -18 -17 -17 -17 -17 -17 -18 -19 -22 -21 -21 -21 -22 -24 -23 -20 -18 -17 -17 -17 -18 -18 -19 -20 -21 -22
-22 -20 -21 -21 -21 -20 -20 -20 -20 -19 -19 -19 -19 -20 -20 -20 -19 -19 -18 -18 -18 -18 -18 -18 -18 -18 -24 -24 -23 -24 -23 -19 -18 -18 -19 -20 -21 -21 -22 -22 -22 -22 -21 -20
Wind_Speed
6 4 2 2 6 3 6 5 6 4 4 9 9 7 11 9 7 6 6 6 6 7 9 12 13 16 17 16 15 13 12 13 15 15 17 18 18 20 21 22 23 25 27 28
4 6 6 2 8 9 6 2 3 4 5 10 19 11 10 9 10 7 6 7 9 12 13 15 15 15 16 16 15 14 13 13 15 16 17 18 19 20 21 23 23 25 26 29
2 4 3 5 8 7 6 3 2 4 5 11 15 14 18 20 14 4 8 12 14 14 18 16 13 12 15 14 15 15 13 13 14 16 17 18 19 19 21 23 24 25 27 28
2 3 3 6 6 5 10 4 7 4 9 11 14 24 24 14 2 12 16 15 14 19 21 15 12 13 13 15 16 15 14 13 15 16 17 18 18 19 21 23 24 25 26 26
2 1 1 6 8 10 7 6 8 12 13 18 21 23 17 13 14 13 24 23 19 20 21 17 14 14 15 15 15 15 13 14 14 16 17 17 17 18 19 22 23 23 23 25
4 2 2 1 6 17 9 5 11 17 14 17 20 9 8 18 21 32 31 22 23 22 22 19 17 16 18 18 17 16 13 13 13 15 17 16 15 15 18 20 22 21 21 21
3 1 3 2 6 15 4 5 24 22 21 21 10 14 33 38 33 30 28 23 22 24 24 21 17 18 21 21 21 15 14 13 13 15 15 14 13 12 16 19 20 22 24 24
2 4 5 13 11 2 7 21 24 25 22 24 27 30 31 31 32 31 30 27 25 26 24 20 18 21 21 22 18 16 15 13 13 14 13 12 10 11 13 18 23 26 30 31
5 3 11 26 14 26 21 22 24 25 28 31 32 29 32 33 29 28 28 28 24 24 23 19 18 19 20 19 17 18 16 12 13 13 12 11 9 10 12 17 24 27 30 35
3 6 8 27 17 24 28 32 32 25 26 28 31 32 33 29 26 24 23 21 18 18 19 20 16 18 18 15 17 18 16 11 13 12 11 10 8 9 12 14 21 25 29 33
6 12 17 15 26 29 38 34 32 24 24 23 30 30 31 29 26 23 21 16 15 16 18 17 15 17 17 18 17 18 15 12 12 11 10 9 7 8 10 11 14 21 23 29
4 17 17 22 30 33 31 34 31 23 24 28 29 28 30 27 25 21 20 17 16 16 17 16 14 16 18 20 18 17 16 13 11 10 8 7 6 6 7 10 11 13 17 22
10 22 27 27 25 28 29 27 22 21 23 28 28 25 27 25 23 19 19 17 17 18 18 17 15 14 20 20 17 19 15 12 10 9 7 6 5 4 7 7 11 13 17 19
15 31 19 19 26 28 26 27 26 26 24 21 23 23 24 23 20 19 18 17 17 17 15 13 11 14 19 20 19 16 15 11 10 9 7 5 3 3 4 9 12 14 16 19
27 26 19 21 23 25 26 26 28 27 26 24 22 25 21 22 20 18 18 16 14 12 10 7 9 13 17 17 14 14 15 11 8 9 8 6 4 1 2 5 10 14 15 18
26 22 21 22 23 24 26 28 26 27 27 25 25 23 19 18 17 17 16 15 12 8 6 6 8 11 12 13 13 14 13 9 9 9 8 6 4 2 1 4 6 11 15 20
22 25 26 25 23 24 25 24 23 26 27 24 23 21 19 17 16 14 14 12 9 7 4 4 6 10 11 12 13 14 12 8 8 9 8 7 5 3 1 3 5 7 10 14
15 16 16 17 19 24 22 22 23 26 24 22 21 20 18 14 17 14 11 8 7 4 1 2 4 7 9 11 12 12 9 9 8 6 7 6 6 4 1 2 5 7 8 9
17 17 17 17 18 19 19 22 23 23 22 20 20 19 16 15 13 10 7 5 4 2 3 6 7 8 9 9 8 8 9 10 9 8 7 7 5 4 2 2 4 6 7 9
17 15 15 16 18 18 18 20 21 22 20 18 18 18 16 14 12 10 7 5 5 6 6 5 6 6 5 5 5 5 7 8 8 10 11 8 5 4 3 3 3 5 7 10
16 15 15 16 18 18 16 18 19 21 20 17 16 15 16 13 12 8 7 6 6 6 4 4 4 3 1 2 3 4 6 8 9 11 10 6 6 5 3 2 3 5 8 10
14 14 14 16 16 17 15 16 17 19 18 17 15 14 13 13 11 8 7 5 4 3 2 4 4 5 5 3 3 4 5 7 8 8 6 6 4 3 2 2 4 7 8 9
13 12 13 15 15 15 14 15 16 16 17 17 16 15 12 12 10 7 7 5 5 3 5 5 9 7 5 6 3 3 4 5 6 6 5 4 4 3 3 5 6 6 6 5
11 11 12 13 12 13 15 16 17 14 15 14 13 12 12 10 8 9 4 6 8 8 11 14 13 9 3 5 2 2 3 4 4 4 4 4 4 4 6 6 6 4 3 3
10 10 12 12 13 14 14 15 15 13 13 14 14 12 10 9 7 6 5 3 2 4 3 2 6 7 5 3 1 1 2 3 4 4 5 6 7 7 6 5 2 1 3 6
11 11 12 11 11 13 16 15 15 12 11 13 14 16 13 10 8 7 7 7 6 7 6 5 6 7 5 4 4 3 3 5 7 8 7 6 4 3 1 1 3 6 8 10
10 10 13 12 13 16 17 15 13 12 11 13 15 17 17 13 10 10 9 8 8 8 8 8 8 7 6 5 5 6 8 8 7 5 4 2 1 1 2 3 4 5 7 9
Wind_Direction
292 320 318 309 313 289 206 217 244 277 276 291 294 287 297 322 307 303 309 322 322 303 290 286 269 249 243 242 246 256 271 289 302 316 320 315 312 309 308 307 308 307 304 303
285 243 230 32 16 16 10 308 356 343 289 342 329 8 347 330 319 314 358 357 354 337 322 303 278 261 246 242 246 255 267 285 300 315 322 319 315 312 310 308 309 309 307 303
273 6 2 76 342 359 337 10 158 36 306 329 344 335 326 312 303 332 346 329 326 327 326 305 278 258 250 249 247 254 265 280 296 310 324 321 316 314 313 315 316 315 312 308
299 13 73 140 31 340 334 107 67 15 349 339 324 315 307 318 301 360 337 332 323 323 324 313 280 259 252 249 253 252 262 275 290 308 323 320 315 313 320 324 327 322 318 314
75 248 136 26 354 337 338 275 49 357 345 337 331 319 301 262 279 314 328 314 311 318 318 304 284 266 256 254 252 254 261 270 287 308 317 320 318 320 329 332 332 326 329 323
21 92 221 147 299 304 291 251 7 351 340 325 331 319 308 314 292 296 307 301 299 307 309 299 278 265 255 254 252 256 258 266 285 301 312 321 324 328 337 336 330 334 336 336
349 279 295 324 334 352 62 265 338 324 311 311 299 287 299 304 299 294 297 301 291 303 301 294 277 256 255 252 252 261 256 264 280 295 309 318 327 329 339 340 339 345 349 349
7 21 332 341 356 42 262 296 303 307 307 305 306 298 308 306 296 294 291 292 290 293 290 286 277 252 260 244 252 252 253 260 273 287 301 310 319 326 338 350 350 356 359 355
175 242 286 309 293 307 296 302 311 314 316 317 312 306 315 318 310 302 294 290 287 284 285 278 273 255 252 241 246 247 246 252 266 280 294 303 307 318 335 357 358 357 359 355
30 274 268 307 323 320 312 298 303 310 319 323 309 316 321 319 323 317 306 295 287 278 278 279 269 253 245 238 239 242 238 244 260 273 289 301 309 318 331 352 357 355 360 353
249 280 292 280 306 309 321 313 305 300 314 310 325 315 320 319 322 320 315 301 286 278 280 279 268 248 228 228 233 235 231 242 249 267 283 295 308 312 318 336 357 355 359 354
285 299 293 298 319 323 326 321 305 303 313 314 327 321 320 319 323 322 319 308 292 286 285 283 269 244 222 224 226 225 236 235 242 260 278 291 307 312 311 326 349 8 4 1
280 322 323 322 323 325 330 327 324 319 314 319 320 321 320 321 321 322 309 304 294 289 284 281 271 243 218 220 219 225 232 224 240 258 274 281 294 324 327 346 355 6 12 12
308 334 325 325 326 329 330 330 326 321 323 323 321 322 323 326 323 322 321 313 303 295 288 276 250 225 208 219 215 228 214 213 240 256 267 270 277 324 355 346 355 11 19 21
326 333 326 326 330 336 339 342 339 337 336 333 328 322 329 330 327 324 323 316 307 299 287 260 232 219 216 215 219 221 202 201 236 251 255 255 248 269 28 23 357 3 21 27
326 331 340 342 338 341 340 337 337 337 335 332 327 330 328 331 327 323 324 323 319 311 288 239 217 212 212 214 215 205 188 197 228 237 237 242 237 237 46 46 38 18 20 19
337 340 340 339 342 341 335 337 338 333 336 337 336 335 333 330 331 326 326 324 320 315 297 238 214 211 209 203 197 187 176 194 216 219 223 219 220 221 315 32 46 51 32 24
336 332 332 330 336 334 341 344 339 339 342 341 342 345 340 334 334 331 331 331 327 327 304 186 180 180 176 177 179 173 169 201 214 216 207 206 204 195 186 44 54 55 51 38
339 338 338 341 341 343 345 345 345 347 347 349 352 348 339 336 340 341 344 354 12 40 100 131 132 147 153 156 164 175 194 202 206 197 182 169 183 181 159 87 61 57 54 62
342 344 343 344 351 350 347 348 352 357 358 356 356 360 2 5 4 2 0 12 60 81 86 101 117 136 152 160 174 186 191 192 191 179 174 193 204 182 133 88 74 70 80 91
346 345 346 348 352 353 348 348 354 1 2 5 4 5 6 5 8 15 27 61 77 63 72 106 120 129 120 125 158 165 172 179 178 174 173 181 166 168 171 139 98 101 114 111
346 344 348 351 352 354 355 350 353 359 2 5 9 12 12 15 17 33 37 56 51 331 72 104 114 82 75 73 114 143 154 160 168 175 184 184 189 177 156 137 128 129 126 127
342 343 344 349 350 351 355 2 4 1 1 3 4 7 12 15 12 3 359 348 21 59 104 130 130 145 56 49 77 123 150 160 169 175 181 184 179 172 152 140 133 124 123 127
342 345 346 348 348 351 0 5 8 1 3 3 5 3 5 7 18 16 37 34 52 116 73 66 144 177 15 23 47 127 146 156 161 167 174 177 171 158 146 137 124 105 77 32
348 349 356 353 355 0 359 358 356 358 8 10 9 5 359 359 1 360 60 90 192 159 190 324 323 304 305 308 257 212 199 189 179 172 157 144 140 140 140 136 117 26 341 331
356 359 6 356 354 357 360 352 346 354 351 357 1 1 352 339 332 319 306 305 292 291 295 292 311 331 310 273 245 220 192 163 148 144 143 143 144 147 164 280 312 317 318 320
356 357 356 358 2 5 359 347 343 349 356 347 340 336 337 333 322 313 305 298 292 289 278 272 286 304 299 246 215 185 163 155 155 157 162 175 213 271 303 325 333 329 335 338
Height
1466 1467 1467 1467 1467 1469 1477 1475 1470 1479 1481 1468 1461 1459 1455 1454 1453 1452 1451 1450 1450 1449 1449 1448 1447 1447 1448 1449 1450 1450 1450 1449 1447 1444 1441 1437 1434 1432 1430 1427 1424 1422 1417 1413
1470 1463 1462 1469 1472 1472 1468 1473 1480 1480 1478 1472 1462 1457 1455 1454 1452 1450 1449 1449 1448 1447 1445 1443 1443 1442 1443 1444 1445 1445 1445 1444 1441 1439 1436 1432 1429 1427 1425 1422 1419 1415 1410 1404
1478 1470 1465 1477 1482 1477 1476 1474 1476 1483 1480 1473 1464 1460 1457 1452 1450 1449 1448 1446 1445 1443 1441 1438 1437 1438 1438 1440 1440 1440 1440 1439 1437 1434 1432 1428 1425 1423 1421 1417 1412 1408 1401 1397
1486 1481 1492 1486 1483 1481 1478 1475 1476 1476 1474 1471 1468 1460 1454 1450 1448 1448 1447 1444 1442 1439 1437 1435 1433 1433 1434 1434 1434 1435 1435 1435 1433 1431 1428 1425 1422 1420 1416 1412 1406 1400 1395 1390
1497 1501 1481 1480 1483 1482 1481 1475 1475 1473 1470 1467 1463 1455 1446 1447 1445 1444 1443 1441 1438 1435 1433 1431 1430 1430 1429 1429 1430 1431 1431 1430 1429 1426 1424 1422 1419 1416 1412 1407 1401 1396 1391 1383
1501 1509 1488 1492 1485 1478 1473 1476 1470 1470 1468 1466 1461 1455 1447 1449 1447 1441 1439 1436 1433 1431 1428 1426 1426 1426 1425 1425 1426 1426 1428 1427 1425 1423 1421 1418 1415 1412 1408 1404 1398 1394 1387 1380
1505 1517 1491 1484 1480 1474 1489 1483 1468 1469 1466 1462 1459 1457 1445 1440 1436 1434 1432 1430 1428 1425 1423 1421 1421 1420 1419 1420 1420 1422 1423 1422 1421 1419 1417 1414 1412 1409 1406 1401 1397 1391 1383 1376
1509 1520 1511 1480 1479 1486 1480 1472 1469 1465 1461 1456 1451 1445 1440 1434 1428 1425 1424 1422 1421 1418 1416 1415 1414 1413 1412 1413 1416 1417 1417 1418 1417 1416 1414 1412 1410 1407 1404 1399 1393 1386 1380 1373
1505 1493 1482 1480 1478 1475 1471 1467 1462 1458 1455 1450 1443 1437 1433 1426 1421 1417 1415 1413 1412 1410 1408 1408 1407 1406 1406 1408 1411 1412 1413 1413 1414 1413 1411 1409 1407 1404 1400 1397 1392 1384 1379 1371
1498 1485 1480 1476 1473 1470 1467 1461 1456 1453 1448 1444 1437 1432 1426 1421 1416 1411 1407 1405 1404 1403 1401 1401 1400 1399 1400 1404 1406 1407 1408 1409 1410 1410 1408 1406 1404 1402 1398 1395 1391 1385 1379 1373
1491 1481 1475 1470 1469 1464 1459 1453 1448 1446 1442 1438 1433 1426 1421 1415 1410 1406 1402 1399 1398 1397 1397 1395 1393 1393 1395 1398 1401 1402 1404 1405 1407 1406 1405 1403 1401 1400 1397 1394 1391 1386 1379 1372
1482 1476 1473 1467 1463 1458 1452 1446 1441 1438 1434 1431 1428 1422 1416 1410 1405 1401 1397 1394 1392 1390 1389 1389 1388 1388 1390 1393 1396 1398 1399 1401 1403 1403 1402 1401 1399 1398 1396 1392 1389 1385 1380 1374
1477 1473 1469 1464 1459 1454 1448 1442 1437 1433 1429 1423 1420 1417 1412 1406 1401 1397 1393 1389 1386 1385 1384 1383 1382 1383 1385 1388 1391 1394 1395 1397 1399 1400 1400 1399 1397 1397 1394 1391 1387 1383 1379 1373
1473 1468 1462 1458 1454 1449 1444 1439 1434 1429 1424 1420 1415 1411 1407 1401 1396 1393 1389 1385 1382 1380 1378 1377 1377 1379 1381 1385 1388 1390 1391 1393 1395 1396 1397 1397 1396 1395 1394 1389 1385 1382 1379 1373
1469 1466 1462 1456 1451 1445 1440 1434 1428 1424 1419 1415 1412 1407 1402 1397 1393 1389 1386 1382 1379 1376 1374 1374 1374 1376 1379 1382 1385 1386 1388 1390 1393 1393 1394 1394 1394 1394 1392 1390 1385 1381 1379 1375
1463 1460 1456 1451 1447 1442 1437 1432 1427 1422 1417 1412 1407 1402 1398 1395 1390 1387 1383 1379 1376 1374 1373 1372 1373 1375 1377 1379 1381 1383 1385 1388 1390 1391 1392 1393 1393 1393 1392 1390 1387 1383 1378 1375
1459 1453 1450 1446 1444 1440 1435 1430 1425 1420 1414 1409 1404 1399 1395 1392 1388 1384 1381 1378 1375 1373 1372 1371 1372 1373 1374 1377 1379 1381 1383 1386 1388 1389 1391 1392 1393 1393 1391 1390 1388 1385 1381 1378
1458 1455 1451 1447 1442 1437 1432 1428 1423 1417 1411 1407 1402 1397 1393 1389 1386 1382 1379 1377 1375 1373 1372 1372 1372 1373 1375 1377 1379 1381 1382 1385 1387 1388 1389 1391 1392 1393 1392 1391 1389 1387 1385 1381
1454 1450 1447 1443 1439 1434 1430 1426 1421 1415 1410 1405 1400 1396 1392 1388 1385 1382 1380 1378 1376 1374 1374 1374 1374 1375 1377 1378 1380 1381 1383 1384 1386 1387 1389 1390 1391 1392 1392 1392 1390 1389 1387 1384
1450 1447 1443 1440 1436 1432 1427 1424 1419 1414 1409 1404 1400 1396 1391 1388 1385 1383 1380 1378 1378 1377 1377 1377 1377 1378 1379 1380 1381 1382 1382 1384 1385 1386 1388 1389 1390 1390 1391 1391 1391 1390 1389 1388
1447 1444 1441 1438 1434 1430 1426 1422 1418 1413 1409 1405 1401 1397 1393 1390 1387 1385 1383 1381 1381 1380 1380 1379 1379 1380 1380 1380 1381 1381 1382 1383 1384 1386 1388 1389 1389 1390 1390 1391 1390 1390 1390 1390
1445 1442 1439 1436 1432 1429 1425 1421 1417 1413 1409 1405 1402 1398 1395 1392 1389 1387 1386 1385 1384 1382 1381 1381 1382 1382 1382 1381 1382 1382 1383 1384 1385 1386 1387 1389 1389 1390 1390 1389 1390 1390 1391 1391
1443 1440 1437 1434 1431 1428 1424 1420 1416 1413 1409 1405 1402 1399 1396 1394 1392 1389 1388 1387 1385 1384 1383 1383 1383 1385 1384 1383 1383 1383 1384 1385 1386 1386 1387 1388 1388 1389 1389 1389 1389 1390 1390 1390
1440 1438 1435 1432 1429 1426 1422 1419 1416 1413 1410 1406 1403 1400 1397 1395 1393 1391 1390 1389 1387 1386 1386 1385 1385 1384 1385 1384 1384 1384 1385 1385 1386 1387 1387 1388 1388 1388 1388 1389 1389 1389 1388 1388
1438 1436 1433 1430 1427 1424 1421 1418 1415 1412 1409 1407 1403 1401 1398 1396 1395 1393 1391 1390 1390 1389 1388 1388 1387 1386 1385 1385 1384 1385 1385 1385 1386 1386 1387 1388 1389 1389 1390 1390 1390 1389 1389 1388
1437 1434 1432 1429 1426 1423 1420 1417 1414 1412 1409 1406 1403 1401 1398 1396 1394 1393 1392 1391 1390 1389 1388 1388 1387 1386 1385 1384 1384 1384 1385 1385 1386 1387 1388 1389 1389 1390 1390 1390 1390 1389 1388 1387
1436 1434 1431 1428 1425 1422 1419 1416 1413 1410 1408 1405 1403 1400 1397 1395 1393 1391 1390 1389 1388 1387 1387 1386 1386 1385 1384 1383 1383 1384 1385 1386 1387 1388 1388 1389 1389 1389 1389 1389 1388 1388 1387 1386